RH
14 10 6 6 10 12 27 54 80 62 20 19 8 19 100 98 96 86 40 26 28 30 23 22 24 30 32 42 45 36 39 37 27 28 26 26 26 27 26 24 24 33 39 38 36
7 6 9 17 41 87 60 72 90 94 96 64 34 5 81 88 98 77 74 60 32 31 26 22 21 28 31 37 47 47 40 32 28 28 26 28 30 30 25 22 23 30 39 38 36
10 14 24 50 62 94 88 78 63 72 82 94 87 28 24 94 96 81 96 78 36 31 30 25 24 29 32 35 35 41 42 40 37 36 34 34 34 31 27 23 23 27 32 38 36
17 36 99 97 80 81 71 73 63 57 79 93 89 78 20 99 98 90 82 84 42 32 32 32 27 31 37 34 33 39 35 36 34 33 31 31 33 31 26 22 22 23 29 36 36
46 77 98 90 96 85 64 64 70 72 80 83 84 76 41 100 98 97 73 73 43 30 31 38 24 25 39 37 36 41 39 33 27 29 25 25 31 29 20 20 18 18 22 35 39
100 100 97 93 93 77 64 61 68 73 78 79 89 84 51 95 90 97 73 67 41 28 30 59 27 27 41 49 40 47 44 33 27 26 27 26 28 27 17 16 14 14 18 28 38
93 97 94 88 92 89 72 73 67 69 82 86 91 87 56 75 85 73 64 49 59 31 29 67 62 33 31 46 44 50 45 39 25 25 28 26 22 18 15 13 11 11 12 17 34
90 86 90 96 88 80 82 72 73 78 71 73 74 75 48 82 96 97 86 94 51 40 37 54 90 71 60 57 49 56 64 38 22 24 27 31 27 28 19 16 12 11 11 12 15
86 88 50 98 70 65 69 72 74 76 79 75 67 85 75 80 94 99 80 98 49 69 58 67 79 84 80 64 73 76 67 48 40 34 35 28 27 19 19 18 15 13 12 12 12
88 94 75 42 43 56 56 70 72 78 84 85 76 92 85 95 98 100 59 100 68 67 87 95 98 80 77 71 81 83 83 48 33 30 29 32 39 29 24 19 18 17 14 11 12
78 82 86 72 42 47 58 62 69 82 70 92 75 83 78 85 95 99 76 91 92 95 92 98 96 74 64 78 76 54 42 40 34 42 51 48 52 23 22 18 16 16 16 15 14
75 85 81 83 55 50 65 58 76 94 78 85 59 99 97 86 86 97 82 99 97 99 99 100 95 83 75 84 72 72 70 68 63 63 60 53 48 22 23 21 21 19 17 18 18
64 77 78 85 71 52 61 72 91 95 79 61 58 97 98 98 88 93 99 99 98 99 98 99 97 85 86 87 94 98 82 74 73 76 74 68 48 27 28 34 31 22 22 24 24
46 63 76 89 88 70 68 73 70 68 76 64 66 98 98 99 99 87 94 99 98 98 99 99 96 99 100 95 93 93 87 90 85 77 72 65 65 29 32 29 25 21 20 22 24
41 56 88 81 82 93 78 68 43 52 67 83 77 98 97 99 96 97 74 98 97 98 97 98 99 95 99 99 100 98 92 95 84 79 77 66 51 30 27 25 28 32 28 25 27
40 40 56 58 62 69 59 48 75 79 99 80 90 97 99 98 93 81 90 89 99 90 92 88 99 100 99 98 99 98 90 86 84 80 81 65 55 27 38 38 37 36 34 31 30
57 45 52 63 78 87 88 92 91 92 87 90 91 96 98 97 91 92 99 100 95 98 98 100 100 96 93 99 99 99 93 82 63 79 77 62 63 30 39 41 40 36 26 24 31
58 65 65 60 93 83 76 74 86 100 98 94 97 98 100 98 97 100 98 95 96 88 91 95 98 98 96 94 85 96 92 75 56 65 58 66 62 36 38 40 35 31 39 40 41
56 62 75 93 69 57 59 64 92 92 88 98 98 100 99 100 96 98 96 84 89 88 74 88 99 99 98 90 89 94 93 78 61 78 76 48 41 38 36 40 40 47 48 46 47
52 65 79 84 74 64 67 99 100 100 82 96 93 88 94 92 93 98 95 86 85 87 72 78 89 99 94 100 93 84 81 78 67 73 58 41 35 26 37 44 53 52 47 50 52
59 58 77 79 67 57 95 96 88 96 85 75 74 89 98 87 91 85 81 85 82 81 84 72 71 99 96 95 88 86 82 69 59 60 57 45 27 31 44 50 51 49 53 57 58
54 59 63 69 82 88 100 91 85 78 68 70 70 70 80 79 86 80 76 72 78 78 79 72 75 92 94 92 91 85 79 67 55 72 72 82 34 42 39 53 58 68 68 69 63
45 63 67 64 75 94 95 95 87 77 69 68 68 69 72 74 76 76 75 71 80 77 76 70 77 97 97 94 94 96 85 82 73 54 55 70 40 51 52 67 87 85 76 77 88
40 55 67 77 82 91 97 93 87 79 70 65 66 65 65 75 68 80 72 79 76 88 84 74 69 68 66 70 75 88 78 82 85 74 65 44 40 40 71 81 81 83 87 98 99
42 42 74 76 94 90 90 93 85 76 71 69 71 68 66 68 67 82 73 78 77 97 92 82 70 71 71 74 73 76 76 79 86 83 63 39 41 64 85 88 97 98 98 98 98
40 44 63 80 90 83 94 91 89 83 76 71 70 73 74 74 72 65 72 74 73 78 94 91 77 74 76 73 72 72 77 83 73 72 57 50 61 84 90 92 90 94 96 96 97
13 49 52 88 88 89 89 91 92 88 85 79 81 81 80 76 79 80 74 76 75 71 85 94 89 78 74 77 81 71 59 58 62 54 52 62 80 91 81 80 85 89 88 80 75
Wind_Speed
43 43 46 45 41 36 33 31 28 32 41 38 36 39 35 29 36 29 37 32 24 24 26 32 35 35 34 34 35 35 33 36 40 37 33 29 25 23 23 24 23 22 20 20 17
44 43 38 36 32 27 30 26 25 22 24 34 37 40 43 38 28 37 27 25 24 26 29 34 37 38 37 35 35 36 40 40 36 34 29 28 28 22 20 22 23 22 21 21 22
40 37 34 31 28 26 26 24 24 28 29 34 25 35 44 35 30 38 19 24 26 29 31 29 32 36 37 36 37 39 42 38 34 30 27 30 29 24 23 23 22 21 22 24 22
34 33 26 27 26 23 21 22 22 25 29 31 29 28 44 48 27 20 25 23 27 32 30 30 33 37 38 38 38 37 40 37 33 28 29 32 31 28 25 22 24 24 25 24 27
32 29 25 26 21 20 19 18 20 21 22 23 25 24 40 43 49 7 14 26 31 33 32 33 34 38 39 40 37 38 36 35 30 33 32 34 35 31 29 26 25 25 27 28 25
28 29 30 25 22 21 15 16 18 17 18 18 19 21 31 43 52 35 16 25 31 32 32 30 34 35 34 32 36 31 37 31 30 32 33 36 35 32 31 25 27 30 27 28 28
30 31 29 25 22 16 11 11 14 13 13 13 15 17 28 44 32 30 30 25 32 30 31 28 28 33 31 29 26 31 20 29 32 32 31 35 37 39 28 30 29 29 30 30 31
32 30 29 25 20 14 9 9 12 11 11 12 12 15 28 40 31 21 32 20 31 28 28 28 25 24 22 18 20 21 23 22 26 31 33 29 32 14 13 28 28 26 30 32 34
31 30 23 22 17 11 9 8 11 14 12 12 13 15 20 38 27 23 29 19 28 30 27 30 26 25 22 21 17 22 17 29 22 19 18 27 32 29 28 28 25 25 28 32 34
29 25 24 18 13 10 8 9 15 16 17 13 12 13 21 34 32 17 28 19 28 29 30 31 28 28 27 27 23 22 19 13 24 26 24 24 27 26 24 25 23 22 22 28 32
30 28 22 17 12 12 8 11 17 14 7 11 7 12 18 28 31 21 29 20 31 32 37 34 34 40 36 29 8 19 16 20 14 19 16 21 25 27 24 25 25 24 22 21 22
28 25 21 15 11 9 11 15 19 12 7 11 11 24 23 21 25 28 28 22 35 34 27 36 37 31 30 23 21 14 15 12 11 12 16 21 26 24 21 23 23 24 22 22 21
27 24 19 11 10 8 13 21 14 8 2 10 17 28 18 18 25 33 24 15 33 22 22 32 29 26 27 28 22 16 13 12 9 8 13 20 21 13 11 11 16 19 17 19 22
29 25 18 10 8 9 11 7 5 6 8 8 13 12 14 16 25 25 26 13 17 13 15 11 16 21 29 28 24 18 15 13 9 4 4 7 6 6 9 9 9 13 14 14 14
35 29 22 18 11 2 3 6 11 7 5 10 22 11 17 17 24 32 27 11 12 14 8 10 19 8 14 27 25 16 18 11 6 3 5 4 3 2 6 9 7 5 7 13 16
34 34 29 23 20 15 11 11 5 5 4 5 16 12 10 15 31 32 25 14 14 13 12 14 11 7 16 13 22 15 14 8 4 3 1 4 9 2 8 12 12 9 6 4 7
30 28 27 23 24 23 14 9 5 9 7 8 13 10 18 26 26 29 18 19 11 13 17 20 18 11 12 21 16 15 12 1 2 2 3 5 6 4 9 9 10 8 5 6 7
26 28 23 14 23 18 15 14 13 6 9 7 14 28 21 29 29 23 19 19 8 11 17 7 7 12 8 8 6 13 9 3 3 3 2 7 7 5 9 10 7 5 5 10 14
26 26 25 20 16 17 18 16 8 7 19 13 28 27 25 21 17 16 12 15 9 10 6 7 8 13 16 11 10 12 8 9 4 1 2 4 4 7 9 11 4 5 9 14 20
24 21 21 17 11 14 23 21 19 22 26 13 10 15 18 17 13 11 14 14 11 12 6 9 8 10 8 10 10 6 10 5 6 3 3 4 5 6 14 9 3 11 18 21 22
20 17 16 16 11 17 25 26 22 19 20 7 12 21 17 24 11 16 8 13 13 12 13 6 3 8 10 9 12 12 11 6 7 3 2 2 2 8 12 3 12 18 20 23 24
16 12 13 12 8 16 20 23 16 13 10 10 11 19 17 21 17 13 11 4 19 11 8 8 6 7 10 7 10 13 12 11 4 5 4 1 3 8 11 5 22 22 21 22 25
14 12 15 7 7 15 14 14 11 10 5 6 10 14 11 13 10 14 12 5 15 15 8 10 6 8 5 7 12 12 17 15 13 6 7 4 2 8 0 14 15 19 20 20 23
10 8 10 6 9 8 11 9 8 6 5 5 12 10 13 12 8 18 14 13 9 17 12 10 6 3 6 1 3 9 14 17 19 12 7 14 6 7 8 13 14 17 17 20 25
7 6 5 2 4 1 2 6 8 6 5 7 10 10 10 8 5 12 16 14 8 19 18 11 5 6 6 6 5 5 6 15 25 25 10 5 11 5 8 14 18 20 21 22 23
9 4 5 2 4 3 2 1 3 6 8 9 8 9 9 5 3 4 17 14 12 15 22 16 5 5 5 8 10 14 14 14 13 20 22 20 9 5 11 13 14 18 20 21 23
8 7 7 6 4 7 5 1 4 4 4 6 9 7 7 6 5 3 10 8 3 7 17 16 12 4 2 4 7 13 13 20 19 15 9 13 7 10 10 10 12 15 18 20 23
Wind_Direction
309 306 301 297 295 292 287 287 283 273 260 247 244 235 224 239 237 240 232 230 230 222 211 213 214 213 209 211 211 213 213 223 231 235 238 247 244 239 242 239 232 226 218 216 222
309 304 299 293 294 296 293 285 280 271 273 269 243 231 225 224 235 239 232 230 222 217 210 209 209 211 208 208 211 210 219 226 231 236 242 248 250 246 241 230 231 228 226 226 231
311 306 304 303 297 293 297 292 278 271 264 270 263 238 217 217 239 238 227 219 215 215 212 209 210 213 209 210 211 215 222 224 229 233 238 245 248 244 240 227 227 230 232 230 233
316 311 313 302 303 297 293 289 280 270 266 268 266 249 215 214 238 245 224 215 209 212 210 203 205 208 209 212 213 216 223 225 228 232 234 242 247 246 240 230 234 234 232 233 235
319 318 313 303 299 295 292 291 283 280 270 273 253 260 214 213 217 187 211 207 204 209 207 203 205 206 209 211 214 219 226 227 226 231 234 240 246 248 242 238 240 239 236 236 232
319 317 313 302 294 299 296 295 298 290 276 262 248 244 221 203 222 218 219 193 200 205 204 204 206 208 211 213 215 226 227 231 228 232 236 242 248 250 242 241 245 243 239 238 237
324 315 318 312 301 304 296 304 304 301 289 269 245 244 221 199 209 213 209 184 196 200 205 202 204 206 212 216 217 223 227 230 230 234 242 246 252 252 253 250 242 244 241 240 241
325 319 318 323 303 291 286 299 310 317 306 282 249 240 219 192 207 224 195 180 194 188 202 198 203 202 205 202 209 215 225 227 229 234 239 245 249 253 242 249 248 242 239 241 238
331 328 317 318 302 282 283 290 307 310 296 285 242 228 205 186 186 207 177 172 185 180 189 194 200 197 198 197 185 195 219 218 220 229 234 237 252 257 251 254 252 246 241 242 242
332 331 327 315 300 283 279 295 310 311 288 273 231 210 188 187 187 183 181 177 178 176 185 189 193 194 201 198 195 193 202 209 224 233 239 244 251 252 252 257 256 254 251 246 248
340 332 325 313 300 285 284 298 318 318 306 216 217 167 172 200 204 192 183 184 172 182 187 190 192 201 201 199 192 215 214 217 219 227 239 246 256 256 259 261 266 268 262 254 248
341 334 320 299 293 280 298 309 316 312 295 219 174 147 161 170 202 173 168 168 176 178 187 184 199 201 199 192 201 192 191 190 207 227 251 260 267 267 273 273 270 265 261 256 246
355 352 347 303 278 293 316 311 305 306 63 168 189 134 125 137 184 171 175 169 177 191 184 184 190 202 192 187 185 185 195 204 211 236 267 285 295 284 263 260 257 260 259 252 245
3 10 10 358 295 296 326 344 87 107 91 143 171 119 129 152 165 181 198 167 181 164 157 144 172 185 183 193 192 199 202 209 209 258 275 317 302 284 260 245 250 249 237 227 237
25 22 30 19 21 341 21 56 102 75 68 122 159 122 140 149 172 167 181 179 187 166 130 135 162 155 179 175 189 201 210 217 204 258 302 275 222 169 180 193 179 156 191 212 225
35 24 42 50 68 68 69 86 43 38 39 104 171 160 121 134 155 156 163 179 155 166 165 144 163 161 172 178 190 161 161 176 237 266 240 211 215 161 152 166 174 175 163 195 229
40 43 29 51 44 27 38 15 27 51 85 127 171 151 141 148 155 160 167 149 157 162 128 141 147 150 153 156 157 155 162 144 40 93 210 192 216 203 165 152 172 195 248 269 272
35 36 24 7 0 31 51 65 59 51 62 160 133 132 123 148 152 167 141 157 145 139 128 121 115 134 163 178 177 173 193 196 186 182 209 217 234 187 174 187 187 252 293 309 303
3 13 15 25 57 71 75 59 51 63 112 123 121 119 132 152 154 165 165 160 158 157 160 130 122 162 172 190 185 189 198 196 109 104 304 220 250 210 196 187 204 268 289 297 299
4 18 20 32 72 92 80 82 95 106 131 96 112 132 140 153 164 161 145 171 174 174 111 135 119 168 175 183 191 184 187 172 197 138 248 267 261 196 175 163 267 298 293 300 300
12 25 40 33 54 98 94 112 101 112 141 91 136 153 153 165 154 149 151 180 187 190 196 148 152 167 192 201 203 191 193 189 166 182 174 299 252 172 168 170 307 302 305 308 305
4 13 7 6 74 101 114 127 122 131 104 103 149 150 155 169 177 166 176 191 198 196 196 200 158 149 193 209 218 215 220 212 196 203 198 190 244 185 178 261 313 315 315 312 304
355 9 16 19 94 112 118 126 120 123 120 129 155 178 175 173 178 190 190 145 192 204 192 171 153 123 177 239 226 220 217 216 221 199 215 177 192 133 187 309 304 304 310 314 322
332 331 344 37 99 138 147 154 160 127 120 101 145 160 167 186 196 197 197 200 205 203 194 187 185 181 178 122 176 210 225 222 214 211 212 228 195 290 318 294 302 311 323 330 331
290 318 352 35 72 119 233 182 195 195 188 157 167 170 168 161 171 189 201 196 193 199 206 205 202 227 255 256 264 256 240 224 221 228 232 264 281 307 316 327 330 331 328 326 328
263 267 283 238 139 133 172 217 242 229 204 200 200 184 193 212 182 169 198 203 208 203 209 217 225 252 277 259 258 262 247 238 233 236 249 266 287 327 325 315 323 324 326 322 320
265 241 229 230 189 169 159 84 87 138 172 187 173 182 196 214 222 201 153 179 207 212 204 213 228 247 243 255 273 278 257 239 232 237 245 255 321 306 308 316 321 311 321 330 333